This demonstration page uses our WeatherBlox Daily Observations layout. Learn more.

Hourly Observations for February 1, 2020

Temp ( °F °C ) Dew Point ( °F °C ) Humidity (%) Winds ( mph kmh ) Pressure ( in mb ) Visibility ( mi km ) Precip ( " mm )
12:35 am 00:35 Clear 30 -1 30 -1 100 100 NW 3 6 30.14 1021 7 11.26538 0 0
12:55 am 00:55 Clear 30 -1 30 -1 100 100 NW 3 6 30.13 1020 5 8.0467 0 0
1:15 am 01:15 Clear 30 -1 30 -1 100 100 Calm 30.12 1020 7 11.26538 0 0
1:35 am 01:35 Clear 28 -2 28 -2 100 100 Calm 30.13 1020 3 4.82802 0 0
1:55 am 01:55 Clear 28 -2 28 -2 100 100 Calm 30.13 1020 5 8.0467 0 0
2:15 am 02:15 Clear 28 -2 28 -2 100 100 Calm 30.12 1020 5 8.0467 0 0
2:35 am 02:35 Clear 28 -2 28 -2 100 100 Calm 30.11 1019 5 8.0467 0 0
2:55 am 02:55 Clear 28 -2 28 -2 100 100 Calm 30.11 1019 3 4.82802 0 0
3:15 am 03:15 Clear 27 -3 27 -3 100 100 NNW 3 6 30.11 1020 3 4.82802 0 0
3:35 am 03:35 Clear 28 -2 28 -2 100 100 Calm 30.09 1019 7 11.26538 0 0
3:55 am 03:55 Clear 28 -2 28 -2 100 100 Calm 30.07 1018 7 11.26538 0 0
4:15 am 04:15 Clear 27 -3 27 -3 100 100 Calm 30.06 1018 5 8.0467 0 0
4:35 am 04:35 Clear 27 -3 27 -3 100 100 Calm 30.07 1018 4 6.43736 0 0
4:55 am 04:55 Clear 27 -3 27 -3 100 100 Calm 30.06 1018 5 8.0467 0 0
5:15 am 05:15 Partly Cloudy 27 -3 27 -3 100 100 N 3 6 30.06 1018 5 8.0467 0 0
5:35 am 05:35 Partly Cloudy 27 -3 27 -3 100 100 Calm 30.06 1018 4 6.43736 0 0
5:55 am 05:55 Partly Cloudy 27 -3 27 -3 100 100 N 5 7 30.06 1018 3 4.82802 0 0
6:15 am 06:15 Cloudy 27 -3 27 -3 100 100 Calm 30.06 1018 1 1.60934 0 0
6:35 am 06:35 Cloudy 27 -3 27 -3 100 100 Calm 30.06 1018 0.25 0.402335 0 0
6:55 am 06:55 Cloudy 28 -2 28 -2 100 100 Calm 30.06 1018 1 1.60934 0 0
7:15 am 07:15 Cloudy 28 -2 28 -2 100 100 Calm 30.06 1018 3 4.82802 0 0
7:35 am 07:35 Cloudy 28 -2 28 -2 100 100 NNW 3 6 30.06 1018 3 4.82802 0 0
7:55 am 07:55 Cloudy 28 -2 28 -2 100 100 NNW 3 6 30.06 1018 3 4.82802 0 0
8:15 am 08:15 Cloudy 28 -2 28 -2 100 100 Calm 30.06 1018 4 6.43736 0 0
8:35 am 08:35 Cloudy 30 -1 30 -1 100 100 Calm 30.04 1017 4 6.43736 0 0
8:55 am 08:55 Cloudy 30 -1 30 -1 100 100 Calm 30.04 1017 4 6.43736 0 0
9:15 am 09:15 Cloudy 30 -1 30 -1 100 100 Calm 30.03 1017 4 6.43736 0 0
9:35 am 09:35 Cloudy 32 0 32 0 100 100 Calm 30.02 1017 4 6.43736 0 0
9:55 am 09:55 Mostly Cloudy 32 0 32 0 100 100 Calm 30.01 1016 3 4.82802 0 0
10:15 am 10:15 Partly Cloudy 32 0 32 0 100 100 Calm 30 1016 5 8.0467 0 0
10:35 am 10:35 Cloudy 34 1 34 1 100 100 NNE 3 6 30 1016 7 11.26538 0 0
10:55 am 10:55 Cloudy 34 1 34 1 100 100 NNW 5 7 29.99 1016 10 16.0934 0 0
11:15 am 11:15 Mostly Cloudy 36 2 34 1 93 93 Calm 29.98 1015 10 16.0934 0 0
11:35 am 11:35 Mostly Cloudy 37 3 34 1 87 87 Calm 29.97 1015 10 16.0934 0 0
11:55 am 11:55 Partly Cloudy 39 4 36 2 87 87 Calm 29.95 1014 10 16.0934 0 0
12:15 pm 12:15 Partly Cloudy 41 5 36 2 81 81 Calm 29.92 1013 10 16.0934 0 0
12:35 pm 12:35 Mostly Cloudy 41 5 36 2 81 81 Calm 29.89 1012 10 16.0934 0 0
12:55 pm 12:55 Cloudy 43 6 36 2 76 76 Calm 29.88 1012 10 16.0934 0 0
1:15 pm 13:15 Cloudy 43 6 36 2 76 76 Calm 29.87 1012 10 16.0934 0 0
1:35 pm 13:35 Partly Cloudy 45 7 37 3 76 76 Calm 29.86 1011 10 16.0934 0 0
1:55 pm 13:55 Mostly Cloudy 45 7 37 3 76 76 S 3 6 29.84 1011 10 16.0934 0 0
2:15 pm 14:15 Mostly Cloudy 46 8 37 3 71 71 Calm 29.83 1010 10 16.0934 0 0
2:35 pm 14:35 Cloudy 46 8 37 3 71 71 Calm 29.82 1010 10 16.0934 0 0
2:55 pm 14:55 Cloudy 45 7 37 3 76 76 Calm 29.81 1010 10 16.0934 0 0
3:15 pm 15:15 Cloudy 45 7 37 3 76 76 Calm 29.81 1010 10 16.0934 0 0
3:35 pm 15:35 Cloudy 45 7 37 3 76 76 Calm 29.8 1009 10 16.0934 0 0
3:55 pm 15:55 Cloudy 45 7 37 3 76 76 Calm 29.8 1009 10 16.0934 0 0
4:15 pm 16:15 Cloudy 45 7 37 3 76 76 NE 7 11 29.8 1009 10 16.0934 0 0
4:35 pm 16:35 Cloudy 45 7 37 3 76 76 NNE 5 7 29.8 1009 10 16.0934 0 0
4:55 pm 16:55 Cloudy 43 6 39 4 87 87 NNE 8 13 29.81 1010 7 11.26538 0 0
5:15 pm 17:15 Cloudy 41 5 39 4 93 93 N 8 13 29.81 1010 4 6.43736 0.01 0.254
5:35 pm 17:35 Cloudy 41 5 39 4 93 93 N 8 13 29.81 1010 5 8.0467 0.03 0.762
7:55 pm 19:55 Cloudy 37 3 37 3 100 100 Calm 29.81 1009 5 8.0467 0.01 0.254
8:35 pm 20:35 Cloudy 37 3 37 3 100 100 Calm 29.8 1009 3 4.82802 0 0
9:35 pm 21:35 Cloudy 36 2 36 2 100 100 N 3 6 29.79 1009 4 6.43736 0 0
9:55 pm 21:55 Cloudy 36 2 36 2 100 100 N 5 7 29.79 1009 4 6.43736 0 0
10:15 pm 22:15 Mostly Cloudy 36 2 36 2 100 100 Calm 29.79 1009 5 8.0467 0 0
10:35 pm 22:35 Mostly Cloudy 36 2 36 2 100 100 Calm 29.79 1009 2.5 4.02335 0 0
10:55 pm 22:55 Cloudy 36 2 36 2 100 100 Calm 29.79 1009 5 8.0467 0 0
11:15 pm 23:15 Cloudy 34 1 34 1 100 100 Calm 29.78 1008 1.75 2.816345 0 0
11:35 pm 23:35 Cloudy 34 1 34 1 100 100 Calm 29.78 1008 3 4.82802 0 0
11:55 pm 23:55 Mostly Cloudy 34 1 34 1 100 100 NW 7 11 29.78 1008 10 16.0934 0 0

Powered by AerisWeather